This is the latest recevied weather packets stored in our database for station/object DO2HBA-6. If no packets are shown the sender has not sent any weather packets the latest 10 day(s).
| Time | Temp. | Humidity | Pressure | Rain* | Wind** | Luminosity | Snow |
|---|---|---|---|---|---|---|---|
| 1777711205 | 20° C | 31% | 1023.9 hPa | 0 mm | - | - | - |
| 1777710904 | 20° C | 30% | 1023.8 hPa | 0 mm | - | - | - |
| 1777710604 | 19.44° C | 30% | 1023.8 hPa | 0 mm | - | - | - |
| 1777710304 | 19.44° C | 30% | 1023.9 hPa | 0 mm | - | - | - |
| 1777710004 | 19.44° C | 28% | 1023.8 hPa | 0 mm | - | - | - |
| 1777709703 | 18.89° C | 27% | 1024 hPa | 0 mm | - | - | - |
| 1777709403 | 18.89° C | 27% | 1024 hPa | 0 mm | - | - | - |
| 1777709103 | 18.89° C | 26% | 1024 hPa | 0 mm | - | - | - |
| 1777708802 | 18.33° C | 25% | 1023.9 hPa | 0 mm | - | - | - |
| 1777708502 | 18.33° C | 24% | 1024 hPa | 0 mm | - | - | - |
| 1777708202 | 17.78° C | 20% | 1024.1 hPa | 0 mm | - | - | - |
| 1777707902 | 17.78° C | 19% | 1024.1 hPa | 0 mm | - | - | - |
| 1777707601 | 17.78° C | 17% | 1024.2 hPa | 0 mm | - | - | - |
| 1777707301 | 17.22° C | 15% | 1024.2 hPa | 0 mm | - | - | - |
| 1777707001 | 17.22° C | 10% | 1024.2 hPa | 0 mm | - | - | - |
| 1777706700 | 16.67° C | 10% | 1024.1 hPa | 0 mm | - | - | - |
| 1777706400 | 16.67° C | 10% | 1024.2 hPa | 0 mm | - | - | - |
| 1777706100 | 15.56° C | 10% | 1024.1 hPa | 0 mm | - | - | - |
| 1777705800 | 15.56° C | 10% | 1024.2 hPa | 0 mm | - | - | - |
| 1777705499 | 15.56° C | 10% | 1024.2 hPa | 0 mm | - | - | - |
| 1777705199 | 15° C | 10% | 1024.2 hPa | 0 mm | - | - | - |
| 1777704899 | 15° C | 10% | 1024.2 hPa | 0 mm | - | - | - |
| 1777704599 | 13.89° C | 10% | 1024.3 hPa | 0 mm | - | - | - |
| 1777704298 | 13.89° C | 10% | 1024.4 hPa | 0 mm | - | - | - |
| 1777703998 | 13.33° C | 10% | 1024.3 hPa | 0 mm | - | - | - |
* Rain latest hour (hover to see other rain measurements)
** Current wind speed in m/s (hover to see current wind gust speed)